Home   Weather   Brisbane   Past weeks
Flag for Australia

Past Weather in Brisbane, Queensland, Australia — Yesterday and Last 2 Weeks

Now
77 °F

Partly sunny.


Feels Like: 79 °F
Forecast: 88 / 69 °F
Wind: 7 mph from Southwest

Location: Brisbane Airport M. O

Current Time: Jan 19, 2019 at 8:11:23 am

Latest Report: Jan 19, 2019 at 7:00 am


Visibility: N/A

Pressure: 30.04 "Hg

Humidity: 69%

Dew Point: 66 °F

Location of BrisbaneLocation

Past Weather in Brisbane — Graph

°F

Brisbane Temperature Yesterday

Maximum temperature yesterday: 86 °F (at 11:00 am)
Minimum temperature yesterday: 72 °F (at 3:30 am)
Average temperature yesterday: 79 °F

High & Low Weather Summary for the Past Weeks

 TemperatureHumidityPressure
High86 °F (Jan 13, 1:00 pm)94% (Jan 15, 3:30 am)30.09 "Hg (Jan 15, 3:30 am)
Low70 °F (Jan 12, 5:00 am)40% (Jan 17, 1:00 pm)29.83 "Hg (Jan 16, 4:00 pm)
Average79 °F66%29.97 "Hg
* Reported Jan 4 6:00 am — Jan 19 6:30 am, Brisbane. Weather by CustomWeather, © 2019

Note: Actual official high and low records may vary slightly from our data, if they occured in-between our weather recording intervals... More about our weather records

Advertising

Brisbane Weather History for the Previous 24 Hours

Scroll right to see more
 ConditionsComfort  
Time TempWeatherWind HumidityBarometerVisibility
6:30 am
Sat, Jan 19
73 °FScattered clouds.7 mph78%30.04 "HgN/A
6:00 am72 °FScattered clouds.7 mph83%30.04 "HgN/A
5:30 am72 °FScattered clouds.6 mph78%30.04 "HgN/A
5:00 am70 °FPassing clouds.6 mph83%30.01 "HgN/A
4:30 am70 °FPassing clouds.6 mph83%30.01 "HgN/A
4:00 am72 °FPassing clouds.5 mph78%30.01 "HgN/A
3:30 am70 °FPassing clouds.6 mph83%30.01 "HgN/A
3:00 am72 °FPassing clouds.6 mph78%29.98 "HgN/A
2:30 am72 °FPassing clouds.7 mph83%30.01 "HgN/A
2:00 am73 °FPassing clouds.9 mph78%30.01 "HgN/A
1:30 am73 °FPassing clouds.10 mph78%30.01 "HgN/A
1:00 am77 °FPassing clouds.13 mph69%30.01 "HgN/A
12:30 am77 °FPassing clouds.13 mph69%30.01 "HgN/A
12:00 am77 °FPassing clouds.14 mph69%30.01 "HgN/A
11:30 pm
Fri, Jan 18
77 °FPassing clouds.13 mph74%30.04 "HgN/A
11:00 pm77 °FPassing clouds.13 mph69%30.04 "HgN/A
10:30 pm77 °FPassing clouds.10 mph69%30.04 "HgN/A
10:00 pm77 °FPassing clouds.12 mph69%30.04 "HgN/A
9:30 pm77 °FPassing clouds.12 mph69%30.04 "HgN/A
9:00 pm77 °FPassing clouds.12 mph69%30.01 "HgN/A
8:30 pm77 °FPassing clouds.13 mph65%30.01 "HgN/A
8:00 pm77 °FPassing clouds.10 mph65%30.01 "HgN/A
7:30 pm77 °FPassing clouds.10 mph69%30.01 "HgN/A
7:00 pm79 °FPassing clouds.12 mph61%30.01 "HgN/A
6:30 pm81 °FPassing clouds.13 mph58%29.98 "HgN/A
6:00 pm81 °FPassing clouds.13 mph58%29.98 "HgN/A
5:30 pm81 °FPassing clouds.14 mph62%29.95 "HgN/A
5:00 pm82 °FPassing clouds.15 mph55%29.95 "HgN/A
4:30 pm84 °FPassing clouds.16 mph51%29.95 "HgN/A
4:00 pm84 °FPassing clouds.16 mph55%29.95 "HgN/A
3:30 pm86 °FPassing clouds.16 mph49%29.95 "HgN/A
3:00 pm86 °FPassing clouds.14 mph49%29.95 "HgN/A
2:30 pm86 °FPassing clouds.14 mph46%29.95 "HgN/A
2:00 pm86 °FPassing clouds.15 mph49%29.95 "HgN/A
1:30 pm86 °FPassing clouds.15 mph49%29.98 "HgN/A
1:00 pm86 °FPassing clouds.15 mph49%29.98 "HgN/A
12:30 pm86 °FPassing clouds.15 mph49%29.98 "HgN/A
12:00 pm84 °FPassing clouds.14 mph51%30.01 "HgN/A
11:30 am86 °FPassing clouds.14 mph46%30.01 "HgN/A
11:00 am86 °FPassing clouds.12 mph49%30.01 "HgN/A
10:00 am82 °FScattered clouds.8 mph55%30.04 "HgN/A
9:30 am84 °FScattered clouds.9 mph51%30.04 "HgN/A
9:00 am82 °FScattered clouds.10 mph58%30.04 "HgN/A
8:30 am82 °FScattered clouds.13 mph62%30.04 "HgN/A
8:00 am81 °FPassing clouds.10 mph66%30.04 "HgN/A
Weather by CustomWeather, © 2019

See weather overview